Time,TemperatureF,DewpointF,PressureIn,WindDirection,WindDirectionDegrees,WindSpeedMPH,WindSpeedGustMPH,Humidity,HourlyPrecipIn,Conditions,Clouds,dailyrainin,SolarRadiationWatts/m^2,SoftwareType,DateUTC
2013-07-06 00:02:00,73.7,63.3,29.78,SSE,161,4.0,6.0,70,0.00,,---,0.03,0.00,VWS V14.01,2013-07-06 05:02:00,
2013-07-06 00:07:00,73.6,63.2,29.78,SSE,159,5.0,6.0,70,0.00,,---,0.00,0.00,VWS V14.01,2013-07-06 05:07:00,
2013-07-06 00:12:00,73.6,63.2,29.78,SSE,159,6.0,6.0,70,0.00,,---,0.00,0.00,VWS V14.01,2013-07-06 05:12:00,
2013-07-06 00:17:00,73.7,63.3,29.78,SSE,160,5.0,8.0,70,0.00,,---,0.00,0.00,VWS V14.01,2013-07-06 05:17:00,
2013-07-06 00:22:00,73.9,63.1,29.78,SSE,164,3.0,10.0,69,0.00,,---,0.00,0.00,VWS V14.01,2013-07-06 05:22:00,
2013-07-06 00:27:00,74.2,63.4,29.78,SSE,164,5.0,10.0,69,0.00,,---,0.00,0.00,VWS V14.01,2013-07-06 05:27:00,
2013-07-06 00:32:00,74.3,63.5,29.78,SSE,161,3.0,10.0,69,0.00,,---,0.00,0.00,VWS V14.01,2013-07-06 05:32:00,
2013-07-06 00:37:00,74.2,63.4,29.78,SSE,163,5.0,9.0,69,0.00,,---,0.00,0.00,VWS V14.01,2013-07-06 05:37:00,
2013-07-06 00:42:00,74.2,63.4,29.79,South,171,4.0,9.0,69,0.00,,---,0.00,0.00,VWS V14.01,2013-07-06 05:42:00,
2013-07-06 00:47:00,74.3,63.5,29.78,SSE,164,5.0,9.0,69,0.00,,---,0.00,0.00,VWS V14.01,2013-07-06 05:47:00,
2013-07-06 00:52:00,74.4,63.6,29.79,South,171,8.0,10.0,69,0.00,,---,0.00,0.00,VWS V14.01,2013-07-06 05:52:00,
2013-07-06 00:57:00,74.6,63.3,29.79,South,169,6.0,10.0,68,0.00,,---,0.00,0.00,VWS V14.01,2013-07-06 05:57:00,
2013-07-06 01:02:00,74.6,63.3,29.79,South,180,6.0,10.0,68,0.00,,---,0.00,0.00,VWS V14.01,2013-07-06 06:02:00,
2013-07-06 01:07:00,74.5,63.3,29.79,SSE,163,4.0,9.0,68,0.00,,---,0.00,0.00,VWS V14.01,2013-07-06 06:07:00,
2013-07-06 01:12:00,74.4,63.6,29.79,SSE,162,7.0,11.0,69,0.00,,---,0.00,0.00,VWS V14.01,2013-07-06 06:12:00,
2013-07-06 01:17:00,74.3,63.5,29.79,South,170,6.0,11.0,69,0.00,,---,0.00,0.00,VWS V14.01,2013-07-06 06:17:00,
2013-07-06 01:22:00,74.2,63.4,29.79,South,169,7.0,9.0,69,0.00,,---,0.00,0.00,VWS V14.01,2013-07-06 06:22:00,
2013-07-06 01:27:00,74.1,63.3,29.79,SSE,167,7.0,10.0,69,0.00,,---,0.00,0.00,VWS V14.01,2013-07-06 06:27:00,
2013-07-06 01:32:00,74.1,63.3,29.79,South,178,9.0,11.0,69,0.00,,---,0.00,0.00,VWS V14.01,2013-07-06 06:32:00,
2013-07-06 01:37:00,74.1,63.3,29.79,SSE,167,9.0,11.0,69,0.00,,---,0.00,0.00,VWS V14.01,2013-07-06 06:37:00,
2013-07-06 01:42:00,74.1,63.3,29.79,SSE,157,5.0,12.0,69,0.00,,---,0.00,0.00,VWS V14.01,2013-07-06 06:42:00,
2013-07-06 01:47:00,74.0,62.8,29.78,SSE,163,6.0,12.0,68,0.00,,---,0.00,0.00,VWS V14.01,2013-07-06 06:47:00,
2013-07-06 01:52:00,74.0,62.8,29.78,SSE,164,6.0,10.0,68,0.00,,---,0.00,0.00,VWS V14.01,2013-07-06 06:52:00,
2013-07-06 01:57:00,74.0,62.4,29.78,SSE,168,6.0,10.0,67,0.00,,---,0.00,0.00,VWS V14.01,2013-07-06 06:57:00,
2013-07-06 02:02:00,74.0,62.4,29.78,SSE,157,10.0,12.0,67,0.00,,---,0.00,0.00,VWS V14.01,2013-07-06 07:02:00,
2013-07-06 02:07:00,74.0,62.4,29.78,SSE,166,7.0,10.0,67,0.00,,---,0.00,0.00,VWS V14.01,2013-07-06 07:07:00,
2013-07-06 02:12:00,73.9,62.3,29.77,SSE,167,6.0,16.0,67,0.00,,---,0.00,0.00,VWS V14.01,2013-07-06 07:12:00,
2013-07-06 02:17:00,73.9,61.8,29.78,South,169,7.0,16.0,66,0.00,,---,0.00,0.00,VWS V14.01,2013-07-06 07:17:00,
2013-07-06 02:22:00,73.8,61.7,29.78,SSE,147,11.0,11.0,66,0.00,,---,0.00,0.00,VWS V14.01,2013-07-06 07:22:00,
2013-07-06 02:27:00,73.8,61.7,29.78,SSE,160,5.0,13.0,66,0.00,,---,0.00,0.00,VWS V14.01,2013-07-06 07:27:00,
2013-07-06 02:32:00,73.7,61.7,29.78,SSE,163,5.0,13.0,66,0.00,,---,0.00,0.00,VWS V14.01,2013-07-06 07:32:00,
2013-07-06 02:37:00,73.4,61.4,29.78,SSE,164,6.0,10.0,66,0.00,,---,0.00,0.00,VWS V14.01,2013-07-06 07:37:00,
2013-07-06 02:42:00,73.3,61.3,29.78,SSE,164,9.0,10.0,66,0.00,,---,0.00,0.00,VWS V14.01,2013-07-06 07:42:00,
2013-07-06 02:47:00,73.2,61.2,29.78,South,170,5.0,10.0,66,0.00,,---,0.00,0.00,VWS V14.01,2013-07-06 07:47:00,
2013-07-06 02:52:00,73.0,61.4,29.78,SSE,164,6.0,10.0,67,0.00,,---,0.00,0.00,VWS V14.01,2013-07-06 07:52:00,
2013-07-06 02:57:00,73.0,61.0,29.78,SSE,168,6.0,12.0,66,0.00,,---,0.00,0.00,VWS V14.01,2013-07-06 07:57:00,
2013-07-06 03:02:00,72.9,61.3,29.78,South,183,11.0,12.0,67,0.00,,---,0.00,0.00,VWS V14.01,2013-07-06 08:02:00,
2013-07-06 03:07:00,72.8,61.2,29.78,SSE,163,9.0,13.0,67,0.00,,---,0.00,0.00,VWS V14.01,2013-07-06 08:07:00,
2013-07-06 03:12:00,72.8,61.2,29.78,South,171,6.0,13.0,67,0.00,,---,0.00,0.00,VWS V14.01,2013-07-06 08:12:00,
2013-07-06 03:17:00,72.6,61.0,29.78,South,170,10.0,14.0,67,0.00,,---,0.00,0.00,VWS V14.01,2013-07-06 08:17:00,
2013-07-06 03:22:00,72.6,61.0,29.78,SSE,168,7.0,12.0,67,0.00,,---,0.00,0.00,VWS V14.01,2013-07-06 08:22:00,
2013-07-06 03:27:00,72.6,61.0,29.78,South,171,4.0,12.0,67,0.00,,---,0.00,0.00,VWS V14.01,2013-07-06 08:27:00,
2013-07-06 03:32:00,72.5,60.9,29.78,South,169,6.0,12.0,67,0.00,,---,0.00,0.00,VWS V14.01,2013-07-06 08:32:00,
2013-07-06 03:37:00,72.3,61.2,29.78,SSE,163,9.0,11.0,68,0.00,,---,0.00,0.00,VWS V14.01,2013-07-06 08:37:00,
2013-07-06 03:42:00,72.3,61.2,29.78,South,184,10.0,13.0,68,0.00,,---,0.00,0.00,VWS V14.01,2013-07-06 08:42:00,
2013-07-06 03:47:00,72.1,61.0,29.77,South,179,12.0,14.0,68,0.00,,---,0.00,0.00,VWS V14.01,2013-07-06 08:47:00,
2013-07-06 03:52:00,72.1,61.0,29.77,SSE,165,4.0,12.0,68,0.00,,---,0.00,0.00,VWS V14.01,2013-07-06 08:52:00,
2013-07-06 03:57:00,71.9,60.8,29.77,South,178,8.0,12.0,68,0.00,,---,0.00,0.00,VWS V14.01,2013-07-06 08:57:00,
2013-07-06 04:02:00,71.9,61.2,29.77,South,171,6.0,13.0,69,0.00,,---,0.00,0.00,VWS V14.01,2013-07-06 09:02:00,
2013-07-06 04:07:00,71.7,61.0,29.77,South,174,7.0,12.0,69,0.00,,---,0.00,0.00,VWS V14.01,2013-07-06 09:07:00,
2013-07-06 04:12:00,71.7,61.0,29.77,SSE,164,7.0,13.0,69,0.00,,---,0.00,0.00,VWS V14.01,2013-07-06 09:12:00,
2013-07-06 04:17:00,71.7,61.0,29.77,South,171,5.0,13.0,69,0.00,,---,0.00,0.00,VWS V14.01,2013-07-06 09:17:00,
2013-07-06 04:22:00,71.6,60.9,29.77,South,182,5.0,10.0,69,0.00,,---,0.00,0.00,VWS V14.01,2013-07-06 09:22:00,
2013-07-06 04:27:00,71.5,60.8,29.77,South,175,6.0,11.0,69,0.00,,---,0.00,0.00,VWS V14.01,2013-07-06 09:27:00,
2013-07-06 04:32:00,71.3,61.0,29.77,South,171,4.0,11.0,70,0.00,,---,0.00,0.00,VWS V14.01,2013-07-06 09:32:00,
2013-07-06 04:37:00,71.3,61.0,29.77,South,169,4.0,11.0,70,0.00,,---,0.00,0.00,VWS V14.01,2013-07-06 09:37:00,
2013-07-06 04:42:00,71.3,61.0,29.77,SSE,168,7.0,14.0,70,0.00,,---,0.00,0.00,VWS V14.01,2013-07-06 09:42:00,
2013-07-06 04:47:00,71.2,60.9,29.77,SSE,161,7.0,14.0,70,0.00,,---,0.00,0.00,VWS V14.01,2013-07-06 09:47:00,
2013-07-06 04:52:00,71.1,60.8,29.77,South,169,7.0,8.0,70,0.00,,---,0.00,0.00,VWS V14.01,2013-07-06 09:52:00,
2013-07-06 04:57:00,71.0,61.1,29.77,SSE,167,9.0,10.0,71,0.00,,---,0.00,0.00,VWS V14.01,2013-07-06 09:57:00,
2013-07-06 05:02:00,70.9,61.0,29.77,South,169,9.0,10.0,71,0.00,,---,0.00,0.00,VWS V14.01,2013-07-06 10:02:00,
2013-07-06 05:07:00,70.9,61.0,29.77,South,170,8.0,12.0,71,0.00,,---,0.00,0.00,VWS V14.01,2013-07-06 10:07:00,
2013-07-06 05:12:00,71.0,61.1,29.77,South,173,7.0,12.0,71,0.00,,---,0.00,0.00,VWS V14.01,2013-07-06 10:12:00,
2013-07-06 05:17:00,71.0,61.1,29.77,SSE,161,6.0,12.0,71,0.00,,---,0.00,0.00,VWS V14.01,2013-07-06 10:17:00,
2013-07-06 05:22:00,70.9,61.0,29.77,South,171,6.0,11.0,71,0.00,,---,0.00,0.00,VWS V14.01,2013-07-06 10:22:00,
2013-07-06 05:27:00,71.0,61.1,29.78,South,170,6.0,11.0,71,0.00,,---,0.00,0.00,VWS V14.01,2013-07-06 10:27:00,
2013-07-06 05:32:00,71.0,61.1,29.78,South,182,5.0,12.0,71,0.00,,---,0.00,0.00,VWS V14.01,2013-07-06 10:32:00,
2013-07-06 05:37:00,71.0,61.1,29.78,SSE,159,7.0,8.0,71,0.00,,---,0.00,0.00,VWS V14.01,2013-07-06 10:37:00,
2013-07-06 05:42:00,71.0,61.1,29.78,SSE,168,4.0,11.0,71,0.00,,---,0.00,0.00,VWS V14.01,2013-07-06 10:42:00,
2013-07-06 05:47:00,71.0,61.1,29.78,South,172,3.0,11.0,71,0.00,,---,0.00,7.00,VWS V14.01,2013-07-06 10:47:00,
2013-07-06 05:52:00,70.9,61.0,29.78,South,169,5.0,9.0,71,0.00,,---,0.00,11.00,VWS V14.01,2013-07-06 10:52:00,
2013-07-06 05:57:00,70.9,61.0,29.78,South,182,11.0,12.0,71,0.00,,---,0.00,12.00,VWS V14.01,2013-07-06 10:57:00,
2013-07-06 06:02:00,70.9,61.4,29.78,South,178,5.0,15.0,72,0.00,,---,0.00,18.00,VWS V14.01,2013-07-06 11:02:00,
2013-07-06 06:07:00,70.9,61.4,29.78,SSE,167,4.0,9.0,72,0.00,,---,0.00,23.00,VWS V14.01,2013-07-06 11:07:00,
2013-07-06 06:12:00,71.0,61.5,29.79,South,178,6.0,11.0,72,0.00,,---,0.00,26.00,VWS V14.01,2013-07-06 11:12:00,
2013-07-06 06:17:00,71.1,61.6,29.79,SSE,161,5.0,12.0,72,0.00,,---,0.00,23.00,VWS V14.01,2013-07-06 11:17:00,
2013-07-06 06:22:00,71.1,61.6,29.79,SSE,164,8.0,8.0,72,0.00,,---,0.00,19.00,VWS V14.01,2013-07-06 11:22:00,
2013-07-06 06:27:00,71.2,61.7,29.79,South,172,9.0,13.0,72,0.00,,---,0.00,12.00,VWS V14.01,2013-07-06 11:27:00,
2013-07-06 06:32:00,71.2,61.7,29.79,South,173,6.0,13.0,72,0.00,,---,0.00,12.00,VWS V14.01,2013-07-06 11:32:00,
2013-07-06 06:37:00,71.3,61.4,29.79,SSE,157,10.0,11.0,71,0.00,,---,0.00,14.00,VWS V14.01,2013-07-06 11:37:00,
2013-07-06 06:42:00,71.3,61.8,29.79,South,172,5.0,12.0,72,0.00,,---,0.00,19.00,VWS V14.01,2013-07-06 11:42:00,
2013-07-06 06:47:00,71.3,61.4,29.79,South,172,5.0,12.0,71,0.00,,---,0.00,25.00,VWS V14.01,2013-07-06 11:47:00,
2013-07-06 06:52:00,71.4,61.9,29.79,South,177,8.0,10.0,72,0.00,,---,0.00,30.00,VWS V14.01,2013-07-06 11:52:00,
2013-07-06 06:57:00,71.5,61.6,29.79,SSE,160,9.0,13.0,71,0.00,,---,0.00,39.00,VWS V14.01,2013-07-06 11:57:00,
2013-07-06 07:02:00,71.6,61.7,29.79,South,172,6.0,13.0,71,0.00,,---,0.00,44.00,VWS V14.01,2013-07-06 12:02:00,
2013-07-06 07:07:00,71.7,62.2,29.79,SSE,166,7.0,14.0,72,0.00,,---,0.00,44.00,VWS V14.01,2013-07-06 12:07:00,
2013-07-06 07:12:00,71.7,61.8,29.79,South,178,9.0,14.0,71,0.00,,---,0.00,42.00,VWS V14.01,2013-07-06 12:12:00,
2013-07-06 07:17:00,71.7,62.2,29.79,South,172,5.0,14.0,72,0.00,,---,0.00,39.00,VWS V14.01,2013-07-06 12:17:00,
2013-07-06 07:22:00,71.7,62.2,29.79,SSE,161,6.0,12.0,72,0.00,,---,0.00,35.00,VWS V14.01,2013-07-06 12:22:00,
2013-07-06 07:27:00,71.7,61.8,29.79,SSE,165,7.0,12.0,71,0.00,,---,0.00,37.00,VWS V14.01,2013-07-06 12:27:00,
2013-07-06 07:32:00,71.8,62.3,29.78,South,173,8.0,12.0,72,0.00,,---,0.00,42.00,VWS V14.01,2013-07-06 12:32:00,
2013-07-06 07:37:00,71.8,62.3,29.78,SSE,162,11.0,14.0,72,0.00,,---,0.00,47.00,VWS V14.01,2013-07-06 12:37:00,
2013-07-06 07:42:00,71.9,62.4,29.78,SSE,164,6.0,14.0,72,0.00,,---,0.00,53.00,VWS V14.01,2013-07-06 12:42:00,
2013-07-06 07:47:00,72.0,62.1,29.79,South,182,11.0,15.0,71,0.00,,---,0.00,56.00,VWS V14.01,2013-07-06 12:47:00,
2013-07-06 07:52:00,72.0,62.1,29.79,South,173,10.0,11.0,71,0.00,,---,0.00,62.00,VWS V14.01,2013-07-06 12:52:00,
2013-07-06 07:57:00,72.0,62.5,29.79,SSE,156,9.0,13.0,72,0.00,,---,0.00,70.00,VWS V14.01,2013-07-06 12:57:00,
2013-07-06 08:02:00,72.1,62.2,29.79,South,171,6.0,14.0,71,0.00,,---,0.00,77.00,VWS V14.01,2013-07-06 13:02:00,
2013-07-06 08:07:00,72.2,62.3,29.79,SSE,150,10.0,12.0,71,0.00,,---,0.00,84.00,VWS V14.01,2013-07-06 13:07:00,
2013-07-06 08:12:00,72.2,62.7,29.79,SSE,167,6.0,12.0,72,0.00,,---,0.00,88.00,VWS V14.01,2013-07-06 13:12:00,
2013-07-06 08:17:00,72.2,62.7,29.79,SSE,166,5.0,12.0,72,0.00,,---,0.00,84.00,VWS V14.01,2013-07-06 13:17:00,
2013-07-06 08:22:00,72.3,62.8,29.79,South,173,6.0,15.0,72,0.00,,---,0.00,90.00,VWS V14.01,2013-07-06 13:22:00,
2013-07-06 08:27:00,72.4,62.9,29.79,SSE,161,7.0,15.0,72,0.00,,---,0.00,105.00,VWS V14.01,2013-07-06 13:27:00,
2013-07-06 08:32:00,72.6,62.7,29.78,South,178,12.0,15.0,71,0.00,,---,0.00,134.00,VWS V14.01,2013-07-06 13:32:00,
2013-07-06 08:37:00,72.7,62.8,29.78,South,169,8.0,11.0,71,0.00,,---,0.00,155.00,VWS V14.01,2013-07-06 13:37:00,
2013-07-06 08:42:00,72.9,63.3,29.78,South,172,7.0,11.0,72,0.00,,---,0.00,179.00,VWS V14.01,2013-07-06 13:42:00,
2013-07-06 08:47:00,73.1,62.7,29.78,SSE,165,6.0,13.0,70,0.00,,---,0.00,204.00,VWS V14.01,2013-07-06 13:47:00,
2013-07-06 08:52:00,73.4,63.4,29.78,SSE,165,7.0,13.0,71,0.00,,---,0.00,204.00,VWS V14.01,2013-07-06 13:52:00,
2013-07-06 08:57:00,73.5,63.1,29.78,SSE,166,7.0,15.0,70,0.00,,---,0.00,216.00,VWS V14.01,2013-07-06 13:57:00,
2013-07-06 09:02:00,73.7,63.7,29.78,South,173,7.0,15.0,71,0.00,,---,0.00,220.00,VWS V14.01,2013-07-06 14:02:00,
2013-07-06 09:07:00,73.9,63.5,29.78,SSE,161,7.0,11.0,70,0.00,,---,0.00,223.00,VWS V14.01,2013-07-06 14:07:00,
2013-07-06 09:12:00,74.0,63.6,29.78,SSE,165,6.0,13.0,70,0.00,,---,0.00,211.00,VWS V14.01,2013-07-06 14:12:00,
2013-07-06 09:17:00,74.0,63.6,29.78,South,180,7.0,13.0,70,0.00,,---,0.00,237.00,VWS V14.01,2013-07-06 14:17:00,
2013-07-06 09:22:00,74.3,63.9,29.78,SSE,164,7.0,12.0,70,0.00,,---,0.00,510.00,VWS V14.01,2013-07-06 14:22:00,
2013-07-06 09:27:00,75.1,64.7,29.78,SSE,167,6.0,12.0,70,0.00,,---,0.00,403.00,VWS V14.01,2013-07-06 14:27:00,
2013-07-06 09:32:00,75.5,64.2,29.78,South,176,11.0,13.0,68,0.00,,---,0.00,292.00,VWS V14.01,2013-07-06 14:32:00,
2013-07-06 09:37:00,75.3,64.4,29.78,SSE,160,7.0,15.0,69,0.00,,---,0.00,223.00,VWS V14.01,2013-07-06 14:37:00,
2013-07-06 09:42:00,74.9,63.6,29.78,SSE,161,10.0,15.0,68,0.00,,---,0.00,220.00,VWS V14.01,2013-07-06 14:42:00,
2013-07-06 09:47:00,74.8,64.0,29.78,SSE,156,11.0,15.0,69,0.00,,---,0.00,250.00,VWS V14.01,2013-07-06 14:47:00,
2013-07-06 09:52:00,74.8,64.0,29.78,SSE,157,8.0,14.0,69,0.00,,---,0.00,267.00,VWS V14.01,2013-07-06 14:52:00,
2013-07-06 09:57:00,75.0,64.2,29.78,South,175,11.0,15.0,69,0.00,,---,0.00,287.00,VWS V14.01,2013-07-06 14:57:00,
2013-07-06 10:02:00,75.1,64.2,29.78,South,178,13.0,15.0,69,0.00,,---,0.00,308.00,VWS V14.01,2013-07-06 15:02:00,
2013-07-06 10:07:00,75.3,64.4,29.78,South,173,9.0,14.0,69,0.00,,---,0.00,352.00,VWS V14.01,2013-07-06 15:07:00,
2013-07-06 10:12:00,75.6,64.7,29.78,South,180,10.0,14.0,69,0.00,,---,0.00,343.00,VWS V14.01,2013-07-06 15:12:00,
2013-07-06 10:17:00,75.8,64.1,29.78,SSE,162,10.0,14.0,67,0.00,,---,0.00,290.00,VWS V14.01,2013-07-06 15:17:00,
2013-07-06 10:22:00,75.9,64.6,29.77,SSE,168,7.0,13.0,68,0.00,,---,0.00,290.00,VWS V14.01,2013-07-06 15:22:00,
2013-07-06 10:27:00,75.9,64.6,29.77,SSE,159,11.0,15.0,68,0.00,,---,0.00,348.00,VWS V14.01,2013-07-06 15:27:00,
2013-07-06 10:32:00,76.3,65.0,29.77,SSE,168,11.0,18.0,68,0.00,,---,0.00,387.00,VWS V14.01,2013-07-06 15:32:00,
2013-07-06 10:37:00,76.5,64.7,29.77,SSE,161,13.0,14.0,67,0.00,,---,0.00,348.00,VWS V14.01,2013-07-06 15:37:00,
2013-07-06 10:42:00,76.6,65.7,29.77,SSE,163,6.0,14.0,69,0.00,,---,0.00,360.00,VWS V14.01,2013-07-06 15:42:00,
2013-07-06 10:47:00,76.8,65.9,29.77,SSE,149,10.0,14.0,69,0.00,,---,0.00,346.00,VWS V14.01,2013-07-06 15:47:00,
2013-07-06 10:48:00,76.8,65.9,29.76,SSE,152,11.0,14.0,69,0.00,,---,0.00,364.00,VWS V14.01,2013-07-06 15:48:00,
2013-07-06 10:53:00,77.2,66.2,29.76,SE,133,13.0,13.0,69,0.00,,---,0.00,759.00,VWS V14.01,2013-07-06 15:53:00,
2013-07-06 10:58:00,78.0,65.7,29.76,SSE,153,11.0,16.0,66,0.00,,---,0.00,874.00,VWS V14.01,2013-07-06 15:58:00,
2013-07-06 11:03:00,78.7,65.5,29.76,South,171,13.0,17.0,64,0.00,,---,0.00,557.00,VWS V14.01,2013-07-06 16:03:00,
2013-07-06 11:08:00,79.0,66.7,29.76,SSE,153,10.0,17.0,66,0.00,,---,0.00,949.00,VWS V14.01,2013-07-06 16:08:00,
2013-07-06 11:13:00,79.8,66.6,29.76,SSE,160,11.0,17.0,64,0.00,,---,0.00,986.00,VWS V14.01,2013-07-06 16:13:00,
2013-07-06 11:18:00,79.8,66.6,29.76,SE,130,12.0,17.0,64,0.00,,---,0.00,791.00,VWS V14.01,2013-07-06 16:18:00,
2013-07-06 11:23:00,80.1,66.8,29.76,SE,136,13.0,18.0,64,0.00,,---,0.00,773.00,VWS V14.01,2013-07-06 16:23:00,
2013-07-06 11:29:00,79.8,66.6,29.76,South,186,15.0,20.0,64,0.00,,---,0.00,526.00,VWS V14.01,2013-07-06 16:29:00,
2013-07-06 11:34:00,79.5,66.3,29.76,SE,145,16.0,17.0,64,0.00,,---,0.00,561.00,VWS V14.01,2013-07-06 16:34:00,
2013-07-06 11:39:00,79.9,66.7,29.76,SSE,163,13.0,20.0,64,0.00,,---,0.00,747.00,VWS V14.01,2013-07-06 16:39:00,
2013-07-06 11:44:00,80.3,67.0,29.77,SE,145,13.0,20.0,64,0.00,,---,0.00,594.00,VWS V14.01,2013-07-06 16:44:00,
2013-07-06 11:49:00,80.4,67.1,29.77,SSE,150,9.0,15.0,64,0.00,,---,0.00,506.00,VWS V14.01,2013-07-06 16:49:00,
2013-07-06 11:54:00,80.3,67.5,29.77,SSE,163,11.0,18.0,65,0.00,,---,0.00,483.00,VWS V14.01,2013-07-06 16:54:00,
2013-07-06 12:00:00,80.6,67.3,29.76,SE,137,11.0,18.0,64,0.00,,---,0.00,519.00,VWS V14.01,2013-07-06 17:00:00,
2013-07-06 12:05:00,81.2,68.3,29.75,SE,142,11.0,15.0,65,0.00,,---,0.00,759.00,VWS V14.01,2013-07-06 17:05:00,
2013-07-06 12:10:00,81.9,69.0,29.75,SSE,163,17.0,17.0,65,0.00,,---,0.00,1013.00,VWS V14.01,2013-07-06 17:10:00,
2013-07-06 12:15:00,82.3,68.0,29.75,SE,144,14.0,18.0,62,0.00,,---,0.00,997.00,VWS V14.01,2013-07-06 17:15:00,
2013-07-06 12:21:00,82.6,68.3,29.75,SSE,162,9.0,18.0,62,0.00,,---,0.00,923.00,VWS V14.01,2013-07-06 17:21:00,
2013-07-06 12:26:00,83.2,68.8,29.75,South,171,15.0,20.0,62,0.00,,---,0.00,933.00,VWS V14.01,2013-07-06 17:26:00,
2013-07-06 12:31:00,83.6,69.2,29.75,South,190,12.0,20.0,62,0.00,,---,0.00,930.00,VWS V14.01,2013-07-06 17:31:00,
2013-07-06 12:37:00,84.2,69.8,29.74,SSE,158,10.0,15.0,62,0.00,,---,0.00,937.00,VWS V14.01,2013-07-06 17:37:00,
2013-07-06 12:42:00,84.6,69.2,29.74,South,188,19.0,19.0,60,0.00,,---,0.00,944.00,VWS V14.01,2013-07-06 17:42:00,
2013-07-06 12:47:00,84.8,68.4,29.75,SSW,202,11.0,19.0,58,0.00,,---,0.00,932.00,VWS V14.01,2013-07-06 17:47:00,
2013-07-06 12:52:00,85.2,68.3,29.75,SSE,166,10.0,19.0,57,0.00,,---,0.00,912.00,VWS V14.01,2013-07-06 17:52:00,
2013-07-06 12:58:00,85.7,69.2,29.74,South,175,12.0,19.0,58,0.00,,---,0.00,942.00,VWS V14.01,2013-07-06 17:58:00,
2013-07-06 13:03:00,86.1,70.6,29.74,South,174,12.0,19.0,60,0.00,,---,0.00,935.00,VWS V14.01,2013-07-06 18:03:00,
2013-07-06 13:08:00,86.5,69.5,29.74,SSE,164,15.0,18.0,57,0.00,,---,0.00,895.00,VWS V14.01,2013-07-06 18:08:00,
2013-07-06 13:13:00,86.5,70.5,29.74,SSE,162,11.0,18.0,59,0.00,,---,0.00,954.00,VWS V14.01,2013-07-06 18:13:00,
2013-07-06 13:18:00,86.7,69.7,29.74,SSE,165,13.0,18.0,57,0.00,,---,0.00,896.00,VWS V14.01,2013-07-06 18:18:00,
2013-07-06 13:23:00,86.7,69.7,29.74,SSE,160,12.0,16.0,57,0.00,,---,0.00,977.00,VWS V14.01,2013-07-06 18:23:00,
2013-07-06 13:28:00,87.0,69.9,29.74,South,178,11.0,16.0,57,0.00,,---,0.00,965.00,VWS V14.01,2013-07-06 18:28:00,
2013-07-06 13:33:00,87.1,69.5,29.74,SSE,148,11.0,11.0,56,0.00,,---,0.00,979.00,VWS V14.01,2013-07-06 18:33:00,
2013-07-06 13:39:00,87.5,69.4,29.74,SE,146,13.0,17.0,55,0.00,,---,0.00,905.00,VWS V14.01,2013-07-06 18:39:00,
2013-07-06 13:44:00,87.3,70.2,29.74,South,180,11.0,17.0,57,0.00,,---,0.00,1020.00,VWS V14.01,2013-07-06 18:44:00,
2013-07-06 13:49:00,87.7,70.1,29.74,SSE,161,10.0,19.0,56,0.00,,---,0.00,1005.00,VWS V14.01,2013-07-06 18:49:00,
2013-07-06 13:54:00,88.0,70.9,29.74,South,175,6.0,19.0,57,0.00,,---,0.00,761.00,VWS V14.01,2013-07-06 18:54:00,
2013-07-06 13:59:00,88.3,71.2,29.73,SSE,157,11.0,19.0,57,0.00,,---,0.00,749.00,VWS V14.01,2013-07-06 18:59:00,
2013-07-06 14:05:00,88.3,70.1,29.73,SSE,163,10.0,15.0,55,0.00,,---,0.00,563.00,VWS V14.01,2013-07-06 19:05:00,
2013-07-06 14:10:00,88.4,70.7,29.73,SSE,156,11.0,19.0,56,0.00,,---,0.00,853.00,VWS V14.01,2013-07-06 19:10:00,
2013-07-06 14:15:00,89.1,69.8,29.73,South,189,15.0,19.0,53,0.00,,---,0.00,1014.00,VWS V14.01,2013-07-06 19:15:00,
2013-07-06 14:20:00,89.6,69.1,29.73,South,182,13.0,19.0,51,0.00,,---,0.00,942.00,VWS V14.01,2013-07-06 19:20:00,
2013-07-06 14:25:00,89.7,69.2,29.73,South,173,14.0,23.0,51,0.00,,---,0.00,921.00,VWS V14.01,2013-07-06 19:25:00,
2013-07-06 14:30:00,89.9,68.8,29.72,SSW,200,11.0,24.0,50,0.00,,---,0.00,939.00,VWS V14.01,2013-07-06 19:30:00,
2013-07-06 14:35:00,90.2,69.1,29.73,SSW,204,13.0,16.0,50,0.00,,---,0.00,932.00,VWS V14.01,2013-07-06 19:35:00,
2013-07-06 14:41:00,90.1,69.0,29.73,South,182,13.0,23.0,50,0.00,,---,0.00,967.00,VWS V14.01,2013-07-06 19:41:00,
2013-07-06 14:47:00,90.4,68.7,29.73,SSE,165,14.0,23.0,49,0.00,,---,0.00,991.00,VWS V14.01,2013-07-06 19:47:00,
2013-07-06 14:52:00,89.6,68.5,29.73,SSE,164,12.0,18.0,50,0.00,,---,0.00,526.00,VWS V14.01,2013-07-06 19:52:00,
2013-07-06 14:57:00,89.3,69.4,29.73,South,181,12.0,18.0,52,0.00,,---,0.00,506.00,VWS V14.01,2013-07-06 19:57:00,
2013-07-06 15:03:00,89.6,70.2,29.73,South,184,13.0,18.0,53,0.00,,---,0.00,1005.00,VWS V14.01,2013-07-06 20:03:00,
2013-07-06 15:08:00,90.2,70.2,29.73,South,175,17.0,17.0,52,0.00,,---,0.00,918.00,VWS V14.01,2013-07-06 20:08:00,
2013-07-06 15:13:00,90.1,69.6,29.73,South,174,11.0,17.0,51,0.00,,---,0.00,705.00,VWS V14.01,2013-07-06 20:13:00,
2013-07-06 15:18:00,90.5,71.6,29.73,SSW,200,12.0,17.0,54,0.00,,---,0.00,905.00,VWS V14.01,2013-07-06 20:18:00,
2013-07-06 15:23:00,90.5,69.9,29.73,South,169,14.0,19.0,51,0.00,,---,0.00,582.00,VWS V14.01,2013-07-06 20:23:00,
2013-07-06 15:28:00,90.1,69.6,29.73,South,177,7.0,19.0,51,0.00,,---,0.00,425.00,VWS V14.01,2013-07-06 20:28:00,
2013-07-06 15:33:00,89.5,70.7,29.73,South,179,11.0,19.0,54,0.00,,---,0.00,322.00,VWS V14.01,2013-07-06 20:33:00,
2013-07-06 15:39:00,88.9,70.1,29.73,SSE,167,6.0,17.0,54,0.00,,---,0.00,332.00,VWS V14.01,2013-07-06 20:39:00,
2013-07-06 15:45:00,88.8,70.6,29.73,SSE,165,7.0,17.0,55,0.00,,---,0.00,410.00,VWS V14.01,2013-07-06 20:45:00,
2013-07-06 15:50:00,89.0,70.2,29.73,SSE,164,10.0,14.0,54,0.00,,---,0.00,404.00,VWS V14.01,2013-07-06 20:50:00,
2013-07-06 15:55:00,89.3,70.5,29.73,South,179,9.0,14.0,54,0.00,,---,0.00,399.00,VWS V14.01,2013-07-06 20:55:00,
2013-07-06 16:00:00,89.3,70.5,29.73,South,175,7.0,14.0,54,0.00,,---,0.00,454.00,VWS V14.01,2013-07-06 21:00:00,
2013-07-06 16:05:00,89.9,71.0,29.73,South,186,12.0,14.0,54,0.00,,---,0.00,928.00,VWS V14.01,2013-07-06 21:05:00,
2013-07-06 16:11:00,90.0,68.9,29.73,South,190,20.0,21.0,50,0.00,,---,0.00,432.00,VWS V14.01,2013-07-06 21:11:00,
2013-07-06 16:16:00,90.3,69.2,29.73,South,190,13.0,21.0,50,0.00,,---,0.00,381.00,VWS V14.01,2013-07-06 21:16:00,
2013-07-06 16:21:00,90.1,69.0,29.73,South,174,9.0,16.0,50,0.00,,---,0.00,388.00,VWS V14.01,2013-07-06 21:21:00,
2013-07-06 16:26:00,89.9,69.9,29.73,South,169,9.0,16.0,52,0.00,,---,0.00,396.00,VWS V14.01,2013-07-06 21:26:00,
2013-07-06 16:31:00,89.9,68.8,29.73,South,179,12.0,16.0,50,0.00,,---,0.00,406.00,VWS V14.01,2013-07-06 21:31:00,
2013-07-06 16:36:00,89.8,69.3,29.73,South,178,10.0,15.0,51,0.00,,---,0.00,575.00,VWS V14.01,2013-07-06 21:36:00,
2013-07-06 16:42:00,89.9,69.9,29.72,South,184,10.0,18.0,52,0.00,,---,0.00,420.00,VWS V14.01,2013-07-06 21:42:00,
2013-07-06 16:47:00,89.7,69.8,29.72,South,184,15.0,18.0,52,0.00,,---,0.00,457.00,VWS V14.01,2013-07-06 21:47:00,
2013-07-06 16:53:00,89.6,68.5,29.72,South,188,17.0,20.0,50,0.00,,---,0.00,330.00,VWS V14.01,2013-07-06 21:53:00,
2013-07-06 16:59:00,89.2,68.2,29.72,South,186,14.0,20.0,50,0.00,,---,0.00,287.00,VWS V14.01,2013-07-06 21:59:00,
2013-07-06 17:04:00,88.9,69.0,29.72,SSW,193,8.0,14.0,52,0.00,,---,0.00,236.00,VWS V14.01,2013-07-06 22:04:00,
2013-07-06 17:09:00,88.6,68.7,29.72,South,184,13.0,16.0,52,0.00,,---,0.00,213.00,VWS V14.01,2013-07-06 22:09:00,
2013-07-06 17:14:00,88.3,69.0,29.72,SSW,196,10.0,16.0,53,0.00,,---,0.00,199.00,VWS V14.01,2013-07-06 22:14:00,
2013-07-06 17:19:00,88.1,69.4,29.72,SSW,195,9.0,14.0,54,0.00,,---,0.00,178.00,VWS V14.01,2013-07-06 22:19:00,
2013-07-06 17:25:00,87.9,69.2,29.72,South,190,9.0,14.0,54,0.00,,---,0.00,165.00,VWS V14.01,2013-07-06 22:25:00,
2013-07-06 17:30:00,87.6,68.9,29.72,South,172,8.0,14.0,54,0.00,,---,0.00,158.00,VWS V14.01,2013-07-06 22:30:00,
2013-07-06 17:35:00,87.5,69.4,29.72,South,170,6.0,10.0,55,0.00,,---,0.00,155.00,VWS V14.01,2013-07-06 22:35:00,
2013-07-06 17:40:00,87.4,69.8,29.72,SSE,157,6.0,12.0,56,0.00,,---,0.00,156.00,VWS V14.01,2013-07-06 22:40:00,
2013-07-06 17:45:00,87.2,69.6,29.72,SSE,159,5.0,12.0,56,0.00,,---,0.00,171.00,VWS V14.01,2013-07-06 22:45:00,
2013-07-06 17:50:00,87.1,69.5,29.72,SSE,158,6.0,10.0,56,0.00,,---,0.00,178.00,VWS V14.01,2013-07-06 22:50:00,
2013-07-06 17:55:00,87.0,69.4,29.71,SSE,155,8.0,10.0,56,0.00,,---,0.00,199.00,VWS V14.01,2013-07-06 22:55:00,
2013-07-06 18:00:00,87.1,69.5,29.71,SSE,157,6.0,10.0,56,0.00,,---,0.00,202.00,VWS V14.01,2013-07-06 23:00:00,
2013-07-06 18:07:00,87.1,69.5,29.71,SSE,162,7.0,10.0,56,0.00,,---,0.00,207.00,VWS V14.01,2013-07-06 23:07:00,
2013-07-06 18:12:00,87.1,70.0,29.71,SSE,161,6.0,10.0,57,0.00,,---,0.00,183.00,VWS V14.01,2013-07-06 23:12:00,
2013-07-06 18:17:00,87.0,70.4,29.71,SSE,163,7.0,10.0,58,0.00,,---,0.00,162.00,VWS V14.01,2013-07-06 23:17:00,
2013-07-06 18:22:00,86.9,70.4,29.71,SSE,163,3.0,7.0,58,0.00,,---,0.00,139.00,VWS V14.01,2013-07-06 23:22:00,
2013-07-06 18:27:00,86.7,70.7,29.71,SSE,160,4.0,8.0,59,0.00,,---,0.00,128.00,VWS V14.01,2013-07-06 23:27:00,
2013-07-06 18:32:00,86.5,70.5,29.71,SSE,164,5.0,8.0,59,0.00,,---,0.00,123.00,VWS V14.01,2013-07-06 23:32:00,
2013-07-06 18:38:00,86.3,70.3,29.71,SSE,164,5.0,7.0,59,0.00,,---,0.00,118.00,VWS V14.01,2013-07-06 23:38:00,
2013-07-06 18:43:00,86.1,70.1,29.71,SSE,160,5.0,7.0,59,0.00,,---,0.00,116.00,VWS V14.01,2013-07-06 23:43:00,
2013-07-06 18:48:00,86.1,69.6,29.71,SSE,163,5.0,7.0,58,0.00,,---,0.00,127.00,VWS V14.01,2013-07-06 23:48:00,
2013-07-06 18:53:00,86.0,70.0,29.71,South,169,2.0,9.0,59,0.00,,---,0.00,130.00,VWS V14.01,2013-07-06 23:53:00,
2013-07-06 18:58:00,85.9,69.9,29.71,SSE,167,4.0,9.0,59,0.00,,---,0.00,118.00,VWS V14.01,2013-07-06 23:58:00,
2013-07-06 19:03:00,85.8,69.8,29.71,SSE,168,3.0,4.0,59,0.00,,---,0.00,105.00,VWS V14.01,2013-07-07 00:03:00,
2013-07-06 19:09:00,85.6,69.6,29.71,SSE,161,2.0,7.0,59,0.00,,---,0.00,100.00,VWS V14.01,2013-07-07 00:09:00,
2013-07-06 19:14:00,85.5,69.6,29.71,SSE,165,4.0,7.0,59,0.00,,---,0.00,98.00,VWS V14.01,2013-07-07 00:14:00,
2013-07-06 19:19:00,85.3,69.8,29.71,SSE,162,4.0,5.0,60,0.00,,---,0.00,88.00,VWS V14.01,2013-07-07 00:19:00,
2013-07-06 19:25:00,85.0,70.1,29.71,SSE,161,2.0,5.0,61,0.00,,---,0.00,77.00,VWS V14.01,2013-07-07 00:25:00,
2013-07-06 19:30:00,84.7,70.2,29.71,SSE,161,3.0,5.0,62,0.00,,---,0.00,65.00,VWS V14.01,2013-07-07 00:30:00,
2013-07-06 19:35:00,84.3,70.3,29.71,SSE,160,4.0,5.0,63,0.00,,---,0.00,54.00,VWS V14.01,2013-07-07 00:35:00,
2013-07-06 19:40:00,84.1,70.2,29.71,SSE,160,4.0,5.0,63,0.00,,---,0.00,47.00,VWS V14.01,2013-07-07 00:40:00,
2013-07-06 19:45:00,83.8,69.9,29.71,SSE,160,3.0,5.0,63,0.00,,---,0.00,42.00,VWS V14.01,2013-07-07 00:45:00,
2013-07-06 19:50:00,83.6,70.1,29.71,SSE,160,4.0,5.0,64,0.00,,---,0.00,37.00,VWS V14.01,2013-07-07 00:50:00,
2013-07-06 19:55:00,83.4,69.9,29.71,SSE,160,4.0,5.0,64,0.00,,---,0.00,35.00,VWS V14.01,2013-07-07 00:55:00,
2013-07-06 20:01:00,83.3,70.3,29.71,SSE,160,5.0,6.0,65,0.00,,---,0.00,33.00,VWS V14.01,2013-07-07 01:01:00,
2013-07-06 20:06:00,83.2,70.2,29.71,SSE,160,4.0,6.0,65,0.00,,---,0.00,35.00,VWS V14.01,2013-07-07 01:06:00,
2013-07-06 20:11:00,83.2,70.2,29.71,SSE,159,4.0,6.0,65,0.00,,---,0.00,30.00,VWS V14.01,2013-07-07 01:11:00,
2013-07-06 20:16:00,83.2,70.2,29.72,SSE,159,2.0,6.0,65,0.00,,---,0.00,26.00,VWS V14.01,2013-07-07 01:16:00,
2013-07-06 20:22:00,83.1,70.6,29.72,SSE,159,2.0,5.0,66,0.00,,---,0.00,26.00,VWS V14.01,2013-07-07 01:22:00,
2013-07-06 20:27:00,83.0,70.5,29.72,SSE,159,0.0,5.0,66,0.00,,---,0.00,26.00,VWS V14.01,2013-07-07 01:27:00,
2013-07-06 20:32:00,82.9,70.8,29.72,SSE,159,0.0,5.0,67,0.00,,---,0.00,25.00,VWS V14.01,2013-07-07 01:32:00,
2013-07-06 20:37:00,82.7,70.6,29.72,SSE,159,0.0,0.0,67,0.00,,---,0.00,23.00,VWS V14.01,2013-07-07 01:37:00,
2013-07-06 20:42:00,82.6,70.5,29.72,SSE,159,0.0,0.0,67,0.00,,---,0.00,18.00,VWS V14.01,2013-07-07 01:42:00,
2013-07-06 20:47:00,82.5,70.9,29.73,SSE,159,0.0,0.0,68,0.00,,---,0.00,12.00,VWS V14.01,2013-07-07 01:47:00,
2013-07-06 20:52:00,82.3,70.7,29.73,SSE,159,0.0,0.0,68,0.00,,---,0.00,7.00,VWS V14.01,2013-07-07 01:52:00,
2013-07-06 20:57:00,82.1,70.9,29.73,SSE,159,0.0,0.0,69,0.00,,---,0.00,5.00,VWS V14.01,2013-07-07 01:57:00,
2013-07-06 21:02:00,81.7,70.6,29.73,SSE,159,2.0,4.0,69,0.00,,---,0.00,0.00,VWS V14.01,2013-07-07 02:02:00,
2013-07-06 21:08:00,81.4,70.3,29.73,SSE,159,0.0,4.0,69,0.00,,---,0.00,0.00,VWS V14.01,2013-07-07 02:08:00,
2013-07-06 21:13:00,81.1,70.0,29.73,SSE,159,1.0,4.0,69,0.00,,---,0.00,0.00,VWS V14.01,2013-07-07 02:13:00,
2013-07-06 21:18:00,80.9,69.8,29.73,SSE,159,0.0,4.0,69,0.00,,---,0.00,0.00,VWS V14.01,2013-07-07 02:18:00,
2013-07-06 21:23:00,80.7,69.6,29.74,SSE,159,2.0,3.0,69,0.00,,---,0.00,0.00,VWS V14.01,2013-07-07 02:23:00,
2013-07-06 21:29:00,80.5,69.4,29.74,SSE,159,1.0,3.0,69,0.00,,---,0.00,0.00,VWS V14.01,2013-07-07 02:29:00,
2013-07-06 21:34:00,80.3,69.2,29.74,SSE,159,1.0,1.0,69,0.00,,---,0.00,0.00,VWS V14.01,2013-07-07 02:34:00,
2013-07-06 21:39:00,80.2,69.1,29.75,SSE,159,0.0,2.0,69,0.00,,---,0.00,0.00,VWS V14.01,2013-07-07 02:39:00,
2013-07-06 21:44:00,80.0,68.9,29.75,SSE,159,1.0,3.0,69,0.00,,---,0.00,0.00,VWS V14.01,2013-07-07 02:44:00,
2013-07-06 21:49:00,79.8,68.7,29.75,SSE,159,0.0,1.0,69,0.00,,---,0.00,0.00,VWS V14.01,2013-07-07 02:49:00,
2013-07-06 21:54:00,79.6,68.5,29.75,SSE,159,1.0,1.0,69,0.00,,---,0.00,0.00,VWS V14.01,2013-07-07 02:54:00,
2013-07-06 21:59:00,79.4,68.3,29.75,SSE,159,2.0,4.0,69,0.00,,---,0.00,0.00,VWS V14.01,2013-07-07 02:59:00,
2013-07-06 22:05:00,79.3,68.3,29.75,SSE,159,0.0,1.0,69,0.00,,---,0.00,0.00,VWS V14.01,2013-07-07 03:05:00,
2013-07-06 22:10:00,79.1,68.1,29.75,SSE,159,4.0,5.0,69,0.00,,---,0.00,0.00,VWS V14.01,2013-07-07 03:10:00,
2013-07-06 22:15:00,78.9,67.9,29.75,SSE,159,4.0,6.0,69,0.00,,---,0.00,0.00,VWS V14.01,2013-07-07 03:15:00,
2013-07-06 22:20:00,78.7,68.1,29.75,SSE,159,3.0,8.0,70,0.00,,---,0.00,0.00,VWS V14.01,2013-07-07 03:20:00,
2013-07-06 22:26:00,78.7,68.1,29.76,SSE,159,5.0,8.0,70,0.00,,---,0.00,0.00,VWS V14.01,2013-07-07 03:26:00,
2013-07-06 22:31:00,78.5,67.9,29.76,SSE,159,3.0,8.0,70,0.00,,---,0.00,0.00,VWS V14.01,2013-07-07 03:31:00,
2013-07-06 22:36:00,78.5,67.5,29.76,SSE,164,4.0,5.0,69,0.00,,---,0.00,0.00,VWS V14.01,2013-07-07 03:36:00,
2013-07-06 22:41:00,78.4,67.4,29.76,SSE,164,3.0,6.0,69,0.00,,---,0.00,0.00,VWS V14.01,2013-07-07 03:41:00,
2013-07-06 22:46:00,78.2,67.2,29.76,SSE,164,3.0,6.0,69,0.00,,---,0.00,0.00,VWS V14.01,2013-07-07 03:46:00,
2013-07-06 22:51:00,78.0,67.0,29.76,SSE,164,3.0,5.0,69,0.00,,---,0.00,0.00,VWS V14.01,2013-07-07 03:51:00,
2013-07-06 22:57:00,77.8,66.8,29.76,SSE,164,3.0,5.0,69,0.00,,---,0.00,0.00,VWS V14.01,2013-07-07 03:57:00,
2013-07-06 23:01:00,77.8,66.8,29.76,SSE,162,5.0,6.0,69,0.00,,---,0.00,0.00,VWS V14.01,2013-07-07 04:01:00,
2013-07-06 23:06:00,77.8,66.8,29.76,SSE,161,5.0,5.0,69,0.00,,---,0.00,0.00,VWS V14.01,2013-07-07 04:06:00,
2013-07-06 23:11:00,77.7,67.1,29.76,SSE,161,4.0,5.0,70,0.00,,---,0.00,0.00,VWS V14.01,2013-07-07 04:11:00,
2013-07-06 23:16:00,77.6,67.1,29.76,SSE,161,4.0,5.0,70,0.00,,---,0.00,0.00,VWS V14.01,2013-07-07 04:16:00,
2013-07-06 23:21:00,77.6,67.1,29.75,SSE,161,4.0,6.0,70,0.00,,---,0.00,0.00,VWS V14.01,2013-07-07 04:21:00,
2013-07-06 23:26:00,77.5,66.9,29.75,SSE,161,2.0,6.0,70,0.00,,---,0.00,0.00,VWS V14.01,2013-07-07 04:26:00,
2013-07-06 23:31:00,77.4,66.9,29.75,SSE,160,3.0,6.0,70,0.00,,---,0.00,0.00,VWS V14.01,2013-07-07 04:31:00,
2013-07-06 23:36:00,77.3,66.8,29.76,SSE,160,2.0,4.0,70,0.00,,---,0.00,0.00,VWS V14.01,2013-07-07 04:36:00,
2013-07-06 23:41:00,77.3,67.2,29.75,SSE,161,0.0,4.0,71,0.00,,---,0.00,0.00,VWS V14.01,2013-07-07 04:41:00,
2013-07-06 23:46:00,77.2,67.1,29.75,SSE,161,3.0,4.0,71,0.00,,---,0.00,0.00,VWS V14.01,2013-07-07 04:46:00,
2013-07-06 23:51:00,77.1,67.0,29.76,SSE,161,3.0,5.0,71,0.00,,---,0.00,0.00,VWS V14.01,2013-07-07 04:51:00,
2013-07-06 23:56:00,77.1,67.0,29.75,SSE,160,4.0,6.0,71,0.00,,---,0.00,0.00,VWS V14.01,2013-07-07 04:56:00,